IU3OVK-13 Weather Reports


Display with metric or nautical units.
time (UTC)temp
F
wind
direction
speed
MPH
gust
MPH
rain 1hr
in
rain 24hr
in
rain mn
in
humidity
%
barometer
mb
20260502181053 67 0.0 0.0 0.00 0.00 0.00 97 1013.9
20260502162731 72 0.0 0.0 0.00 0.00 0.00 79 1013.2
20260502160651 73 0.0 0.0 0.00 0.00 0.00 79 1013.4
20260502121928 74 0.0 0.0 0.00 0.00 0.00 73 1015.4
20260502120909 73 0.0 0.0 0.00 0.00 0.00 73 1015.6
20260502115847 71 0.0 0.0 0.00 0.00 0.00 77 1015.9
20260502113807 72 0.0 0.0 0.00 0.00 0.00 77 1016.0
20260502112747 69 0.0 0.0 0.00 0.00 0.00 77 1016.4
20260502111727 74 0.0 0.0 0.00 0.00 0.00 73 1016.4
20260502110708 71 0.0 0.0 0.00 0.00 0.00 72 1017.1
20260502105646 74 0.0 0.0 0.00 0.00 0.00 70 1017.4
20260502103606 75 0.0 0.0 0.00 0.00 0.00 69 1018.0
20260502102546 76 0.0 0.0 0.00 0.00 0.00 67 1018.4
20260502091324 105 0.0 0.0 0.00 0.00 0.00 53 1016.2
20260502090303 105 0.0 0.0 0.00 0.00 0.00 53 1016.2
20260502065856 85 0.0 0.0 0.00 0.00 0.00 73 1016.0
20260502063815 79 0.0 0.0 0.00 0.00 0.00 80 1018.3
20260502062755 79 0.0 0.0 0.00 0.00 0.00 82 1016.8
20260502061735 79 0.0 0.0 0.00 0.00 0.00 86 1009.6
20260501212438 53 0.0 0.0 0.00 0.00 0.00 99 1020.9
20260501211419 53 0.0 0.0 0.00 0.00 0.00 99 1021.1
20260501210357 53 0.0 0.0 0.00 0.00 0.00 99 1020.8
20260501205337 53 0.0 0.0 0.00 0.00 0.00 99 1021.2
20260501204317 54 0.0 0.0 0.00 0.00 0.00 99 1020.6
20260501203258 55 0.0 0.0 0.00 0.00 0.00 99 1020.3
20260501202237 55 0.0 0.0 0.00 0.00 0.00 99 1020.3
20260501201217 56 0.0 0.0 0.00 0.00 0.00 99 1020.3
20260501200157 56 0.0 0.0 0.00 0.00 0.00 99 1020.3
20260501195136 57 0.0 0.0 0.00 0.00 0.00 99 1019.7
20260501194116 57 0.0 0.0 0.00 0.00 0.00 99 1020.2
20260501193056 58 0.0 0.0 0.00 0.00 0.00 99 1020.1
20260501192036 58 0.0 0.0 0.00 0.00 0.00 99 1020.0
20260501191016 58 0.0 0.0 0.00 0.00 0.00 94 1019.4
20260501185956 59 0.0 0.0 0.00 0.00 0.00 85 1019.1
20260501184936 60 0.0 0.0 0.00 0.00 0.00 79 1018.9
20260501183916 60 0.0 0.0 0.00 0.00 0.00 78 1018.7